Regional Weather Roundup
Issued by NWS

Home | Current Version | Previous Version | Text Only | Print | Product List | Glossary On
Versions: 1 2 3 4 5 6 7 8 9 10 11 12 13 14 15 16 17 18 19 20 21 22 23 24 25 26 27 28 29 30 31 32 33 34 35 36 37 38 39 40 41 42 43 44 45 46 47 48 49 50
000
ASUS42 KFFC 210310
RWRGA
WEATHER ROUNDUP FOR GEORGIA
NATIONAL WEATHER SERVICE PEACHTREE CITY GA
1100 PM EDT FRI APR 20 2018

NOTE: "FAIR" INDICATES FEW OR NO CLOUDS BELOW 12,000 FEET WITH NO
SIGNIFICANT WEATHER AND/OR OBSTRUCTIONS TO VISIBILITY.

* = USE WITH CAUTION. THE STATIONS MARKED WITH AN ASTERISK MAY NOT
REPORT WEATHER SUCH AS PRECIPITATION, FOG, OR THUNDER AND ARE NOT
QUALITY CONTROLLED BY NWS.

THE REMARK "TC" DENOTES TEMPERATURE READING IN DEGREES CELSIUS.

GAZ001>058-210400-
NORTH GEORGIA

CITY           SKY/WX    TMP DP  RH WIND       PRES   REMARKS
ATLANTA        FAIR      57  36  45 SE3       30.29S
ATHENS         FAIR      49  37  63 CALM      30.30S
CHAMBLEE       FAIR      50  35  56 CALM      30.28F
PEACHTREE CITY FAIR      45  41  86 CALM      30.29S
ROME           FAIR      49  41  74 CALM      30.28R
WEST ATLANTA   FAIR      48  41  76 CALM      30.28S
GAINESVILLE    FAIR      55  31  39 SE5       30.31S
CARTERSVILLE   FAIR      47  39  74 CALM      30.29S


CITY           SKY/WX    TMP DP  RH WIND       PRES   REMARKS
DALTON*        FAIR      46  37  71 CALM      30.30R
LAWRENCEVILLE* FAIR      48  39  71 CALM      30.29S
MARIETTA       CLEAR     52  34  50 CALM      30.28S
KENNESAW*      FAIR      52  38  58 CALM      30.29S
CANTON*        FAIR      52  32  46 CALM      30.30S
BLAIRSVILLE*   FAIR      46  35  66 CALM      30.31S HAZE
$$

GAZ059>098-102>109-210400-
CENTRAL GEORGIA

CITY           SKY/WX    TMP DP  RH WIND       PRES   REMARKS
AUGUSTA-BUSH   FAIR      45  41  86 CALM      30.31R
AUGUSTA-DANIEL FAIR      60  31  33 E5        30.31S
COLUMBUS       FAIR      60  36  40 E6        30.26S
MACON          FAIR      50  42  74 CALM      30.28S
ROBINS AFB     CLEAR     51  46  83 CALM      30.27S


CITY           SKY/WX    TMP DP  RH WIND       PRES   REMARKS
LAGRANGE*      FAIR      46  43  88 CALM      30.28S
SYLVANIA*      FAIR      54  45  71 CALM      30.32S
MILLEDGEVILLE* FAIR      50  43  76 CALM      30.30S
$$

GAZ099>101-110>166-210400-
SOUTH GEORGIA

CITY           SKY/WX    TMP DP  RH WIND       PRES   REMARKS
SAVANNAH       FAIR      56  48  74 E6        30.32R
VALDOSTA       CLOUDY    63  51  65 E6        30.24S
ALMA           MOCLDY    59  48  67 E6        30.28R
ST SIMONS      CLOUDY    62  51  67 NE9       30.28R
FT STEWART     FAIR      53  47  82 NE5       30.28S
ALBANY         FAIR      57  45  64 E7        30.26S
HUNTER AFB     FAIR      57  48  73 NE6       30.28S
MOODY AFB      FAIR      61  50  69 E6        30.24S
BRUNSWICK      FAIR      55  48  76 N5        30.29S


CITY           SKY/WX    TMP DP  RH WIND       PRES   REMARKS
BAINBRIDGE*      N/A     63  50  63 NE8       30.23S
MOULTRIE*      FAIR      61  45  55 E3        30.25S
VIDALIA*       FAIR      55  46  71 NE3       30.30S
WAYCROSS*      MOCLDY    59  52  77 E6        30.27F
DOUGLAS*       FAIR      59  46  63 E5        30.28F
$$




USA.gov is the U.S. government's official web portal to all federal, state and local government web resources and services.